星链-35573(STARLINK-35573)

导读

STARLINK-35573是美国于2025年10月22日发射的星链卫星,隶属于SpaceX公司的星链星座项目。星链项目旨在通过构建近地轨道卫星群,为全球提供高速互联网覆盖,尤其服务偏远与网络基础设施匮乏地区,该卫星发射进一步扩容了星链星座,提升了系统的覆盖能力与服务性能。

Basic Information
目录编号:
66116
目录名称:
STARLINK-35573
国际标识:
2025-237C
轨道中心:
EARTH
卫星名称:
星链-35573
卫星全名:
星链-35573(STARLINK-35573)
卫星状态:
在轨 (已飞行324 天)
发射日期:
2025-10-22 UTC
国别 :
美国 (US)
星等 :
--
This satellite is enrolled in the Space Conjunction Data Service (SCDS) and the current flight risk assessment level is: No High Risk
Orbit Information
数据来源 国际轨道数据 AOE轨道数据
星历时间 2026-09-11T17:24:56+0800
10小时前
查看轨道信息
2026-09-07T04:00:00+0800
5天前
查看轨道信息
半长轴 6840.849km 6840.906km
偏心率 0.0001849 0.000121
轨道倾角 53.160° 53.158°
近地点辐角 53.408° 84.003°
升交点赤经 254.139° 275.447°
平近点角 306.709° 279.097°
近地点 461.447km 461.941km
远地点 463.977km 463.597km
周期 93.848分钟 93.849分钟
每日圈数 15.343973 15.34378
Detailed Information
固有亮度:
5
最大亮度:
2.5
卫星平台:
Starlink V1.0
覆盖范围:
全球
运营商:
太空探索技术公司
运营商所在国:
美国
制造商(研发单位):
太空探索技术公司
制造商所在国:
美国
使用方式:
暂无
Satellite Introduction
Starlink 计划是 SpaceX 推出的全球卫星互联网项目,通过发射低轨道卫星,为全球尤其是偏远地区提供高速、低延迟的互联网服务。自 2019 年起,Starlink 已部署数千颗卫星,旨在缩小全球数字鸿沟,推动互联网普及。该项目还为军事、航空等行业提供通信支持,带来广泛经济效益。
2D Orbit Map
3D Orbit Map
Orbit Altitude Analysis Chart
Orbit Inclination Analysis Chart
Orbit Comprehensive Analysis Chart
View Comprehensive Chart
Conjunction Data List
Event ID Objects TCA Miss Dist (km) Collision Risk Probability Collision Risk Index (CRI) Action
CDM_260912-085104-474406-611621
2026-09-12T
08:51:27+0000
0.615 km
远距离
1.086551E-4 高风险 0.76
CDM_260908-044303-074406-611621
2026-09-08T
04:43:44+0000
2.340 km
极远距离
1.989858E-6 低风险 0.41
CDM_260912-155004-775306-611621
2026-09-12T
15:50:39+0000
2.264 km
极远距离
1.891179E-6 低风险 0.41
CDM_260912-194504-775306-611621
2026-09-12T
19:45:11+0000
2.341 km
极远距离
1.764734E-6 低风险 0.4
CDM_260912-172704-474406-611621
2026-09-12T
17:27:14+0000
2.789 km
极远距离
1.318184E-6 低风险 0.37
CDM_260913-133805-269806-611621
2026-09-13T
13:38:00+0000
2.770 km
极远距离
1.275203E-6 低风险 0.37
CDM_260910-185405-179206-611621
2026-09-10T
18:54:45+0000
2.587 km
极远距离
7.150551E-7 极低风险 0.32
Miss Distance Evolution Trend with All Objects
Collision Probability Evolution Trend with All Objects